Location: Newark
(27.9675°N, 86.8869°E)
Time: 18:04:25
(UTC+00:00)

deb Explorer IX - Pass Details

Date: 23 October 2019
Orbit: 546 x 1105 km, 38.8° (Epoch: 16 November)

Event Time Altitude Azimuth Distance (km) Brightness Sun altitude
Rises 05:11:21 0° 241° (WSW) 2,789 ? 49.2°
Reaches altitude 10° 05:13:30 10° 242° (WSW) 1,941 ? 49.4°
Maximum altitude 05:17:58 85° 331° (NNW) 667 ? 49.6°
Drops below altitude 10° 05:23:11 10° 60° (ENE) 2,255 ? 49.9°
Sets 05:25:51 0° 61° (ENE) 3,280 ? 50.0°
